Location: Montr�al
(45.5000°N, 73.5830°W)
Time: 17:53:11
(UTC-04:00)

ISS - All Passes

Search period start: 16 April 2014 00:00
Search period end: 26 April 2014 00:00
Orbit: 414 x 420 km, 51.6° (Epoch: 16 April)

Date Brightness Start Highest point End Pass type
(mag) Time Alt. Az. Time Alt. Az. Time Alt. Az.
16 Apr - 00:00:00 11° SSE 23:59:45 12° SSE 00:00:08 10° SSE night (unlit)
16 Apr - 16:38:11 10° SSW 16:41:08 29° SE 16:44:07 10° ENE daylight
16 Apr - 18:14:29 10° W 18:17:47 52° NNW 18:21:05 10° NE daylight
16 Apr - 19:52:04 10° WNW 19:55:01 27° N 19:57:59 10° ENE daylight
16 Apr - 21:29:06 10° NW 21:32:20 41° NNE 21:35:33 10° E visible
16 Apr - 23:05:54 10° WNW 23:09:07 44° SW 23:12:20 10° SE visible
17 Apr - 15:50:38 10° S 15:53:02 19° SE 15:55:27 10° E daylight
17 Apr - 17:26:07 10° WSW 17:29:28 74° NNW 17:32:50 10° ENE daylight
17 Apr - 19:03:36 10° WNW 19:06:36 29° N 19:09:36 10° NE daylight
17 Apr - 20:40:50 10° NW 20:43:57 33° NNE 20:47:03 10° E visible
17 Apr - 22:17:33 10° WNW 22:20:55 71° SSW 22:24:15 10° SE visible
17 Apr - 23:56:08 10° WSW 23:57:07 11° SW 23:58:06 10° SSW visible
18 Apr - 15:03:50 10° SSE 15:04:57 11° SE 15:06:05 10° ESE daylight
18 Apr - 16:37:50 10° SW 16:41:10 73° SSE 16:44:32 10° ENE daylight
18 Apr - 18:15:03 10° W 18:18:09 33° NNW 18:21:15 10° NE daylight
18 Apr - 19:52:29 10° NW 19:55:30 29° N 19:58:30 10° ENE daylight
18 Apr - 21:29:14 10° WNW 21:32:36 76° NNE 21:35:58 10° ESE visible
18 Apr - 23:06:39 10° W 23:09:01 18° SW 23:11:23 10° S visible
19 Apr - 15:49:41 10° SW 15:52:53 45° SE 15:56:07 10° ENE daylight
19 Apr - 17:26:29 10° W 17:29:41 40° NNW 17:32:54 10° NE daylight
19 Apr - 19:04:02 10° WNW 19:06:59 27° N 19:09:56 10° ENE daylight
19 Apr - 20:40:54 10° NW 20:44:13 53° NNE 20:47:31 10° E visible
19 Apr - 22:17:53 10° WNW 22:20:50 29° SW 22:23:46 10° SSE visible
20 Apr - 15:01:43 10° SSW 15:04:37 28° SE 15:07:32 10° E daylight
20 Apr - 16:37:55 10° WSW 16:41:13 54° NNW 16:44:32 10° ENE daylight
20 Apr - 18:15:29 10° WNW 18:18:26 27° N 18:21:23 10° ENE daylight
20 Apr - 19:52:32 10° NW 19:55:44 40° NNE 19:58:56 10° E daylight
20 Apr - 21:29:18 10° WNW 21:32:33 46° SW 21:35:46 10° SE visible
21 Apr - 14:14:04 10° S 14:16:22 17° SE 14:18:40 10° E daylight
21 Apr - 15:49:24 10° WSW 15:52:45 78° NNW 15:56:07 10° ENE daylight
21 Apr - 17:26:51 10° WNW 17:29:51 29° N 17:32:51 10° NE daylight
21 Apr - 19:04:06 10° NW 19:07:11 33° NNE 19:10:16 10° ENE daylight
21 Apr - 20:40:48 10° WNW 20:44:10 75° SSW 20:47:30 10° SE visible
21 Apr - 22:19:06 10° WSW 22:20:23 12° SW 22:21:40 10° SSW visible
22 Apr - 13:27:25 10° SE 13:28:07 11° SE 13:28:49 10° ESE daylight
22 Apr - 15:00:59 10° SW 15:04:18 68° SSE 15:07:38 10° ENE daylight
22 Apr - 16:38:08 10° W 16:41:14 34° NNW 16:44:20 10° NE daylight
22 Apr - 18:15:35 10° NW 18:18:34 29° N 18:21:33 10° ENE daylight
22 Apr - 19:52:19 10° WNW 19:55:41 72° NNE 19:59:02 10° ESE daylight
22 Apr - 21:29:39 10° W 21:32:07 19° SW 21:34:35 10° S visible
23 Apr - 14:12:41 10° SW 14:15:51 42° SE 14:19:03 10° ENE daylight
23 Apr - 15:49:24 10° W 15:52:37 42° NNW 15:55:50 10° NE daylight
23 Apr - 17:26:57 10° WNW 17:29:54 27° N 17:32:50 10° ENE daylight
23 Apr - 19:03:50 10° NW 19:07:07 50° NNE 19:10:24 10° E daylight
23 Apr - 20:40:45 10° WNW 20:43:45 31° SW 20:46:45 10° SSE visible
24 Apr - 13:24:36 10° SSW 13:27:26 26° SE 13:30:16 10° E daylight
24 Apr - 15:00:41 10° WSW 15:03:59 56° NNW 15:07:18 10° ENE daylight
24 Apr - 16:38:14 10° WNW 16:41:11 28° N 16:44:07 10° ENE daylight
24 Apr - 18:15:18 10° NW 18:18:29 38° NNE 18:21:39 10° E daylight
24 Apr - 19:52:02 10° WNW 19:55:18 50° SW 19:58:33 10° SE daylight
25 Apr - 12:36:52 10° S 12:39:01 16° SE 12:41:10 10° E daylight
25 Apr - 14:12:01 10° WSW 14:15:22 83° NNW 14:18:44 10° ENE daylight
25 Apr - 15:49:25 10° WNW 15:52:26 30° N 15:55:26 10° NE daylight
25 Apr - 17:26:42 10° NW 17:29:45 32° NNE 17:32:49 10° ENE daylight
25 Apr - 19:03:23 10° WNW 19:06:45 80° SSW 19:10:05 10° SE daylight
25 Apr - 20:41:26 10° WSW 20:42:59 13° SW 20:44:32 10° SSW visible
